Tracking 18980 objects as of 20-Feb-2018
HD Live streaming from Space Station
objects crossing your sky now

COSMOS 1707

Track COSMOS 1707 now!
10-day predictions
COSMOS 1707 is classified as:


NORAD ID: 16326
Int'l Code: 1985-113A
Perigee: 524.7 km
Apogee: 540.0 km
Inclination: 82.5 °
Period: 95.1 minutes
Semi major axis: 6903 km
RCS: 8.1597 m2 (large)
Launch date: December 12, 1985
Source: Commonwealth of Independent States (former USSR) (CIS)
Launch site: PLESETSK MISSILE AND SPACE COMPLEX (PKMTR)
aabbcc
Your satellite tracking list
Your tracking list is empty




NASA's NSSDC Master Catalog

Two Line Element Set (TLE):
1 16326U 85113A   18050.83325080 +.00001045 +00000-0 +56400-4 0  9998
2 16326 082.5140 325.0185 0011072 158.2007 201.9698 15.13614788754520
Source of the keplerian elements: AFSPC